FW4113 Weather Reports


time (UTC)temp
C
wind
direction
speed
KPH
gust
KPH
rain 1hr
cm
rain 24hr
cm
rain mn
cm
humidity
%
barometer
mb
20260505124547 0 96 0.0 0.0 0.00 0.00 0.00 45 1004.1
20260505123054 0 96 0.0 0.0 0.00 0.00 0.00 45 1004.3
20260505121540 0 105 0.0 0.0 0.00 0.00 0.00 42 1004.4
20260505120041 0 142 0.0 0.0 0.00 0.00 0.00 41 1004.4
20260505114533 1 146 1.6 3.2 0.00 0.00 0.00 38 1004.5
20260505113030 1 208 0.0 4.8 0.00 0.00 0.00 35 1004.8
20260505111528 2 127 0.0 4.8 0.00 0.00 0.00 35 1004.8
20260505101531 5 94 0.0 0.0 0.00 0.00 0.00 23 1004.5
20260505100023 5 293 0.0 8.0 0.00 0.00 0.00 22 1004.3
20260505094517 5 290 6.4 11.3 0.00 0.00 0.00 22 1004.6
20260505093023 6 252 4.8 12.9 0.00 0.00 0.00 21 1004.5
20260505091513 6 257 4.8 9.7 0.00 0.00 0.00 21 1005.0
20260505090011 6 275 1.6 14.5 0.00 0.00 0.00 20 1005.2
20260505084510 6 240 3.2 14.5 0.00 0.00 0.00 21 1005.3
20260505083011 6 208 4.8 11.3 0.00 0.00 0.00 22 1005.4
20260505081507 4 269 4.8 8.0 0.00 0.00 0.00 27 1005.6
20260505080120 3 113 0.0 3.2 0.00 0.00 0.00 38 1005.7
20260505074607 3 166 0.0 9.7 0.00 0.00 0.00 39 1005.8
20260505073058 4 298 0.0 3.2 0.00 0.00 0.00 37 1005.7
20260505071603 4 281 0.0 4.8 0.00 0.00 0.00 36 1005.8
20260505070052 4 85 1.6 4.8 0.00 0.00 0.00 35 1005.8
20260505064550 4 113 0.0 4.8 0.00 0.00 0.00 35 1006.0
20260505063105 4 270 1.6 6.4 0.00 0.00 0.00 35 1005.9
20260505061610 4 137 0.0 4.8 0.00 0.00 0.00 35 1005.9
20260505060042 4 115 1.6 6.4 0.00 0.00 0.00 34 1005.8
20260505054538 5 92 1.6 9.7 0.00 0.00 0.00 33 1005.5
20260505053042 5 109 0.0 9.7 0.00 0.00 0.00 31 1005.8
20260505051556 6 107 0.0 0.0 0.00 0.00 0.00 31 1005.9
20260505041528 8 182 1.6 6.4 0.00 0.00 0.00 23 1006.1
20260505040025 8 254 3.2 11.3 0.00 0.00 0.00 23 1006.1
20260505034517 8 279 4.8 16.1 0.00 0.00 0.00 22 1006.2
20260505033013 8 240 4.8 11.3 0.00 0.00 0.00 23 1006.2
20260505031507 8 266 3.2 11.3 0.00 0.00 0.00 21 1006.2
20260505030004 9 250 6.4 14.5 0.00 0.00 0.00 20 1006.0
20260505024559 9 255 3.2 12.9 0.00 0.00 0.00 20 1005.9
20260505023056 9 258 8.0 16.1 0.00 0.00 0.00 19 1006.0
20260505021552 9 252 6.4 17.7 0.00 0.00 0.00 18 1006.1
20260505020050 10 261 3.2 8.0 0.00 0.00 0.00 18 1006.0
20260505014541 10 252 4.8 16.1 0.00 0.00 0.00 17 1006.1
20260505013037 10 243 3.2 8.0 0.00 0.00 0.00 17 1005.9
20260505011534 10 232 4.8 12.9 0.00 0.00 0.00 17 1005.8
20260505010027 11 242 4.8 12.9 0.00 0.00 0.00 17 1005.8
20260505004525 11 228 4.8 16.1 0.00 0.00 0.00 16 1006.0
20260505003022 11 234 11.3 20.9 0.00 0.00 0.00 15 1006.0
20260505001514 12 252 6.4 14.5 0.00 0.00 0.00 15 1006.3
20260505000010 12 230 4.8 12.9 0.00 0.00 0.00 14 1006.5
20260504234505 12 224 3.2 17.7 0.00 0.00 0.00 14 1006.4
20260504233001 13 238 6.4 14.5 0.00 0.00 0.00 10 1006.3
20260504231604 13 185 4.8 16.1 0.00 0.00 0.00 13 1006.0
20260504230059 13 201 4.8 17.7 0.00 0.00 0.00 16 1005.7
20260504224558 14 341 11.3 22.5 0.00 0.00 0.00 14 1006.1
20260504223054 14 275 4.8 17.7 0.00 0.00 0.00 12 1005.9
20260504221553 15 286 9.7 17.7 0.00 0.00 0.00 13 1005.9
20260504220051 14 252 3.2 16.1 0.00 0.00 0.00 13 1006.2
20260504214555 15 309 6.4 17.7 0.00 0.00 0.00 13 1006.5
20260504213047 15 315 4.8 17.7 0.00 0.00 0.00 15 1006.6
20260504211545 15 214 4.8 20.9 0.00 0.00 0.00 17 1007.0
20260504210049 15 237 6.4 22.5 0.00 0.00 0.00 16 1007.1
20260504204548 15 288 4.8 12.9 0.00 0.00 0.00 19 1007.3
20260504203055 15 309 11.3 17.7 0.00 0.00 0.00 18 1007.5
20260504201541 15 299 6.4 17.7 0.00 0.00 0.00 20 1007.4
20260504200037 15 300 6.4 14.5 0.00 0.00 0.00 22 1007.5
20260504194536 13 300 8.0 14.5 0.00 0.00 0.00 23 1007.6
20260504193032 14 288 4.8 16.1 0.00 0.00 0.00 25 1007.8
20260504191531 13 216 6.4 14.5 0.00 0.00 0.00 25 1007.8
20260504190035 14 303 6.4 16.1 0.00 0.00 0.00 25 1007.7
20260504184533 13 331 4.8 20.9 0.00 0.00 0.00 25 1007.6
20260504183032 13 310 4.8 11.3 0.00 0.00 0.00 24 1007.8
20260504181523 13 240 3.2 11.3 0.00 0.00 0.00 28 1008.2
20260504180021 12 194 3.2 12.9 0.00 0.00 0.00 26 1008.2
20260504174518 12 171 3.2 12.9 0.00 0.00 0.00 29 1008.4
20260504173013 11 211 4.8 11.3 0.00 0.00 0.00 30 1008.5
20260504171512 11 242 3.2 11.3 0.00 0.00 0.00 32 1008.4